Weather History for Bar Harbor, ME

Change the Weather History Date:

Monday, March 24, 2014

  Actual Average Record
Temperature  
Mean Temperature 15 °F -  
Max Temperature 24 °F 47 °F 64 °F (1979)
Min Temperature 6 °F 29 °F 6 °F (2014)
Degree Days  
Heating Degree Days 50    
Moisture  
Dew Point -1 °F    
Average Humidity 48    
Maximum Humidity 67    
Minimum Humidity 33    
Precipitation  
Precipitation 0.00 in - - ()
Sea Level Pressure  
Sea Level Pressure 30.03 in    
Wind  
Wind Speed 9 mph (NW)    
Max Wind Speed 16 mph    
Max Gust Speed 29 mph    
Visibility 10 miles    
Events      
Averages and records for this station are not official NWS values.
T = Trace of Precipitation, MM = Missing Value Source: NWS Daily Summary

Daily Weather History Graph

Daily Weather History Graph

Search for Another Location

Airport:

Trip Planner

Search our weather history database for the weather conditions in past years. The results will help you decide how hot, cold, wet, or windy it might be!

Date:

Astronomy

Mar. 24, 2014 Rise Set
Actual Time 6:29 AM EDT 6:50 PM EDT
Civil Twilight 6:00 AM EDT 7:19 PM EDT
Nautical Twilight 5:25 AM EDT 7:54 PM EDT
Astronomical Twilight 4:50 AM EDT 8:29 PM EDT
Moon 2:08 AM EDT (3/24) 11:59 AM EDT (3/24)
Length of Visible Light 13h 19m
Length of Day
12h 21m
Last Quarter, 43% of the Moon is Illuminated
Mar 24
Last Quarter
Mar 30
New
Apr 7
First Quarter
Apr 15
Full
Apr 22
Last Quarter

Hourly Weather History & Observations

Time (EDT) Temp. Windchill Dew Point Humidity Pressure Visibility Wind Dir Wind Speed Gust Speed Precip Events Conditions
12:15 AM 12.2 °F -0.2 °F 1.4 °F 62% 30.04 in 10.0 mi NNW 9.2 mph 18.4 mph N/A   Clear
12:35 AM 12.2 °F -0.2 °F 1.4 °F 62% 30.03 in 10.0 mi NNW 9.2 mph 19.6 mph N/A   Clear
12:55 AM 12.2 °F -0.2 °F -0.4 °F 57% 30.04 in 10.0 mi NNW 9.2 mph 17.3 mph N/A   Clear
1:15 AM 12.2 °F -0.2 °F -0.4 °F 57% 30.05 in 10.0 mi NNW 9.2 mph - N/A   Clear
1:35 AM 12.2 °F -3.1 °F -0.4 °F 57% 30.05 in 10.0 mi North 13.8 mph 20.7 mph N/A   Clear
1:55 AM 10.4 °F -2.4 °F -0.4 °F 62% 30.05 in 10.0 mi NNW 9.2 mph 16.1 mph N/A   Clear
2:15 AM 10.4 °F -2.4 °F -2.2 °F 57% 30.05 in 10.0 mi NNW 9.2 mph 16.1 mph N/A   Clear
2:35 AM 10.4 °F -4.8 °F -2.2 °F 57% 30.05 in 10.0 mi North 12.7 mph 18.4 mph N/A   Clear
2:55 AM 10.4 °F -1.5 °F -2.2 °F 57% 30.05 in 10.0 mi North 8.1 mph 19.6 mph N/A   Clear
3:15 AM 10.4 °F -0.4 °F -4.0 °F 52% 30.05 in 10.0 mi NNW 6.9 mph 17.3 mph N/A   Clear
3:35 AM 8.6 °F -5.5 °F -2.2 °F 62% 30.05 in 10.0 mi NNW 10.4 mph 19.6 mph N/A   Clear
3:55 AM 8.6 °F -3.7 °F -2.2 °F 62% 30.05 in 10.0 mi NNW 8.1 mph - N/A   Clear
4:15 AM 8.6 °F -2.6 °F -2.2 °F 62% 30.06 in 10.0 mi NNW 6.9 mph - N/A   Clear
4:35 AM 8.6 °F -1.3 °F -2.2 °F 62% 30.06 in 10.0 mi NNW 5.8 mph - N/A   Clear
4:55 AM 8.6 °F -2.6 °F -2.2 °F 62% 30.06 in 10.0 mi NW 6.9 mph - N/A   Clear
5:15 AM 6.8 °F -3.5 °F -2.2 °F 67% 30.06 in 10.0 mi NW 5.8 mph - N/A   Clear
5:35 AM 6.8 °F -3.5 °F -2.2 °F 67% 30.07 in 10.0 mi NW 5.8 mph - N/A   Clear
5:55 AM 6.8 °F -2.0 °F -2.2 °F 67% 30.07 in 10.0 mi NW 4.6 mph - N/A   Clear
6:15 AM 6.8 °F -2.0 °F -2.2 °F 67% 30.07 in 10.0 mi NW 4.6 mph - N/A   Clear
6:35 AM 6.8 °F -2.0 °F -2.2 °F 67% 30.08 in 10.0 mi WNW 4.6 mph - N/A   Clear
6:55 AM 6.8 °F -3.5 °F -2.2 °F 67% 30.08 in 10.0 mi NW 5.8 mph - N/A   Clear
7:15 AM 6.8 °F -4.8 °F -2.2 °F 67% 30.08 in 10.0 mi WNW 6.9 mph - N/A   Clear
7:35 AM 8.6 °F -1.3 °F -4.0 °F 57% 30.08 in 10.0 mi NW 5.8 mph - N/A   Clear
7:55 AM 8.6 °F -4.7 °F -4.0 °F 57% 30.08 in 10.0 mi NW 9.2 mph - N/A   Clear
8:15 AM 10.4 °F -2.4 °F -4.0 °F 52% 30.08 in 10.0 mi NW 9.2 mph - N/A   Clear
8:35 AM 10.4 °F -4.1 °F -4.0 °F 52% 30.08 in 10.0 mi NW 11.5 mph 16.1 mph N/A   Clear
8:55 AM 10.4 °F -3.3 °F -5.8 °F 48% 30.08 in 10.0 mi NNW 10.4 mph 17.3 mph N/A   Clear
9:15 AM 12.2 °F -2.5 °F -4.0 °F 48% 30.07 in 10.0 mi NW 12.7 mph 18.4 mph N/A   Clear
9:35 AM 12.2 °F -1.8 °F -4.0 °F 48% 30.06 in 10.0 mi NW 11.5 mph 19.6 mph N/A   Clear
9:55 AM 12.2 °F -1.0 °F -5.8 °F 45% 30.06 in 10.0 mi North 10.4 mph 17.3 mph N/A   Clear
10:15 AM 14.0 °F 2.0 °F -5.8 °F 41% 30.05 in 10.0 mi NW 9.2 mph - N/A   Clear
10:35 AM 15.8 °F 8.6 °F -4.0 °F 41% 30.05 in 10.0 mi NNW 4.6 mph - N/A   Clear
10:55 AM 15.8 °F 1.4 °F -4.0 °F 41% 30.04 in 10.0 mi NNW 13.8 mph 20.7 mph N/A   Clear
11:15 AM 15.8 °F 3.4 °F -4.0 °F 41% 30.04 in 10.0 mi WNW 10.4 mph 17.3 mph N/A   Clear
11:35 AM 17.6 °F 4.3 °F -4.0 °F 38% 30.03 in 10.0 mi NW 12.7 mph 21.9 mph N/A   Clear
11:55 AM 17.6 °F 3.7 °F -5.8 °F 35% 30.02 in 10.0 mi WNW 13.8 mph 19.6 mph N/A   Clear
12:15 PM 17.6 °F 4.3 °F -5.8 °F 35% 30.02 in 10.0 mi NW 12.7 mph 28.8 mph N/A   Clear
12:35 PM 19.4 °F 6.6 °F -4.0 °F 36% 30.01 in 10.0 mi NNW 12.7 mph 26.5 mph N/A   Clear
12:55 PM 19.4 °F 5.5 °F -4.0 °F 36% 29.99 in 10.0 mi NW 15.0 mph 25.3 mph N/A   Clear
1:15 PM 21.2 °F 8.9 °F -2.2 °F 36% 29.99 in 10.0 mi NNW 12.7 mph 19.6 mph N/A   Clear
1:35 PM 23.0 °F 11.1 °F -2.2 °F 33% 29.98 in 10.0 mi NW 12.7 mph 19.6 mph N/A   Clear
1:55 PM 23.0 °F 13.1 °F -0.4 °F 36% 29.97 in 10.0 mi WNW 9.2 mph 18.4 mph N/A   Clear
2:15 PM 23.0 °F 13.1 °F -0.4 °F 36% 29.97 in 10.0 mi NW 9.2 mph 21.9 mph N/A   Clear
2:35 PM 24.8 °F 15.3 °F -0.4 °F 34% 29.97 in 10.0 mi WNW 9.2 mph 20.7 mph N/A   Clear
2:55 PM 24.8 °F 11.9 °F 1.4 °F 36% 29.96 in 10.0 mi WNW 16.1 mph 21.9 mph N/A   Clear
3:15 PM 24.8 °F 15.3 °F -0.4 °F 34% 29.96 in 10.0 mi West 9.2 mph 20.7 mph N/A   Clear
3:35 PM 24.8 °F 16.9 °F -0.4 °F 34% 29.96 in 10.0 mi NW 6.9 mph 20.7 mph N/A   Clear
3:55 PM 24.8 °F 15.3 °F -0.4 °F 34% 29.95 in 10.0 mi NW 9.2 mph 21.9 mph N/A   Clear
4:15 PM 24.8 °F 14.6 °F 1.4 °F 36% 29.95 in 10.0 mi NW 10.4 mph 19.6 mph N/A   Clear
4:35 PM 24.8 °F 15.3 °F -0.4 °F 34% 29.95 in 10.0 mi WNW 9.2 mph 16.1 mph N/A   Clear
4:55 PM 24.8 °F 12.9 °F -0.4 °F 34% 29.95 in 10.0 mi NNW 13.8 mph 21.9 mph N/A   Clear
5:15 PM 24.8 °F 15.3 °F 1.4 °F 36% 29.96 in 10.0 mi WNW 9.2 mph 16.1 mph N/A   Clear
5:35 PM 24.8 °F 14.6 °F -0.4 °F 34% 29.97 in 10.0 mi NW 10.4 mph 17.3 mph N/A   Clear
5:55 PM 24.8 °F 14.0 °F -0.4 °F 34% 29.97 in 10.0 mi NNW 11.5 mph 20.7 mph N/A   Clear
6:15 PM 24.8 °F 15.3 °F 1.4 °F 36% 29.98 in 10.0 mi WNW 9.2 mph - N/A   Clear
6:35 PM 23.0 °F 13.1 °F -0.4 °F 36% 29.98 in 10.0 mi NW 9.2 mph 17.3 mph N/A   Clear
6:55 PM 21.2 °F 10.1 °F 1.4 °F 42% 29.99 in 10.0 mi NW 10.4 mph 16.1 mph N/A   Clear
7:15 PM 21.2 °F 11.7 °F 1.4 °F 42% 29.99 in 10.0 mi NW 8.1 mph - N/A   Clear
7:35 PM 21.2 °F 13.6 °F 1.4 °F 42% 30.00 in 10.0 mi NNW 5.8 mph - N/A   Clear
7:55 PM 21.2 °F 13.6 °F 1.4 °F 42% 30.02 in 10.0 mi NW 5.8 mph - N/A   Clear
8:15 PM 19.4 °F 11.5 °F 1.4 °F 46% 30.03 in 10.0 mi NW 5.8 mph - N/A   Clear
8:35 PM 19.4 °F 12.8 °F 1.4 °F 46% 30.04 in 10.0 mi NNW 4.6 mph - N/A   Clear
8:55 PM 19.4 °F 10.4 °F 1.4 °F 46% 30.05 in 10.0 mi NW 6.9 mph - N/A   Clear
9:15 PM 17.6 °F 12.3 °F 1.4 °F 49% 30.06 in 10.0 mi NNW 3.5 mph - N/A   Clear
9:35 PM 17.6 °F 10.7 °F 1.4 °F 49% 30.06 in 10.0 mi NNW 4.6 mph - N/A   Clear
9:55 PM 17.6 °F 12.3 °F 1.4 °F 49% 30.07 in 10.0 mi WNW 3.5 mph - N/A   Clear
10:15 PM 17.6 °F 12.3 °F 1.4 °F 49% 30.08 in 10.0 mi WNW 3.5 mph - N/A   Clear
10:35 PM 15.8 °F 10.2 °F 1.4 °F 53% 30.08 in 10.0 mi WNW 3.5 mph - N/A   Clear
10:55 PM 15.8 °F - 1.4 °F 53% 30.08 in 10.0 mi Calm Calm - N/A   Clear
11:15 PM 15.8 °F 10.2 °F 3.2 °F 58% 30.09 in 10.0 mi West 3.5 mph - N/A   Clear
11:35 PM 15.8 °F 10.2 °F 3.2 °F 58% 30.09 in 10.0 mi West 3.5 mph - N/A   Clear
11:55 PM 14.0 °F 8.2 °F 3.2 °F 62% 30.09 in 10.0 mi West 3.5 mph - N/A   Clear